Regional Weather Roundup
Issued by NWS Wakefield, VA

Home | Current Version | Previous Version | Graphics & Text | Print | Product List | Glossary On
Versions: 1 2 3 4 5 6 7 8 9 10 11 12 13 14 15 16 17 18 19 20 21 22 23 24 25 26 27 28 29 30 31 32 33 34 35 36 37 38 39 40 41 42 43 44 45 46 47 48 49 50
000
ASUS41 KAKQ 031615
RWRAKQ

REGIONAL WEATHER ROUNDUP
NATIONAL WEATHER SERVICE WAKEFIELD VA
1200 PM EDT FRI JUL 03 2015

Note: "fair" indicates few or no clouds below 12,000 feet with no
significant weather and/or obstructions to visibility. * = Denotes
station may not report precipitation (e.g., rain,snow,etc.),
thunder or fog.

VAZ042-051-052>054-056-031700-
NORTHERN VIRGINIA

CITY           SKY/WX    TMP DP  RH WIND       PRES   REMARKS
WASH NATIONAL  PTSUNNY   78  65  63 S8        30.00S
DULLES         MOSUNNY   76  62  62 VRB6      30.00S
FORT BELVOIR   PTSUNNY   76  64  67 VRB2      30.00S
QUANTICO       PTSUNNY   75  64  68 CALM      30.01R
FREDERICKSBRG* PTSUNNY   80  66  61 E5        29.99S
STAFFORD*      PTSUNNY   76  64  65 S7        30.04S
WARRENTON      PTSUNNY   76  67  71 E6        30.00S
CULPEPER*      CLOUDY    75  64  67 SE3       30.01S
MANASSAS*      SUNNY     75  64  69 S7        30.00S
LEESBURG*      PTSUNNY   79  66  65 S12       30.01S
WINCHESTER     CLOUDY    77  64  65 E6        30.00S
FRONT ROYAL*   FAIR      77  64  65 SE5       29.99S
LURAY*         CLOUDY    77  64  65 CALM      30.00S
$$

VAZ048-049-060>072-079>083-031700-
CENTRAL AND SOUTH CENTRAL VIRGINIA

CITY           SKY/WX    TMP DP  RH WIND       PRES   REMARKS
RICHMOND       PTSUNNY   80  65  59 E7        29.99R
CHESTERFIELD*  NOT AVBL
PETERSBURG*    CLOUDY    79  71  74 S6        30.00S
HANOVER        PTSUNNY   78  64  61 VRB3      30.01R
TAPPAHANNOCK*  PTSUNNY   78  61  55 SE3       30.00S
QUINTON*       FAIR      77  66  69 E7        29.99S
CHARLOTTSVILLE CLOUDY    73  65  75 CALM      30.01R
GORDONSVILLE*  CLOUDY    73  66  78 NE3       29.99F
ORANGE*        CLOUDY    77  66  69 CALM      30.01S
LOUISA*        PTSUNNY   79  63  57 E6        29.99S
BUMPASS*       FAIR      78  65  63 E7        29.99S
FARMVILLE*     CLOUDY    77  64  63 SE5       29.99R
CREWE*         CLOUDY    76  63  64 SE6       30.00R
FORT PICKETT*  CLOUDY    76  65  67 S13       30.00R
CHASE CITY*    PTSUNNY   79  67  65 SE7       29.99F
CLARKSVILLE*   CLOUDY    77  68  73 E6        29.98F
SOUTH HILL*    CLOUDY    77  66  68 S6        30.05S
LAWRENCEVILLE* NOT AVBL
EMPORIA*         N/A     79  68  69 E7        30.00S
$$

VAZ088>098-031700-
SOUTHEAST VIRGINIA

CITY           SKY/WX    TMP DP  RH WIND       PRES   REMARKS
NORFOLK        SUNNY     78  64  61 NE7       29.98S
VIRGINIA BEACH SUNNY     81  66  60 E7        29.98S
NORFOLK NAVAL  MOSUNNY   80  63  55 E9        30.00S
WEST POINT*    MOSUNNY   80  65  60 CALM      30.01R
SALUDA*        FAIR      77  67  71 E6        30.00R
NEWPORT NEWS   SUNNY     80  66  62 E7        29.99S
LANGLEY AFB    SUNNY     79  65  63 NE8       29.97F
FORT EUSTIS    SUNNY     80  65  60 E2        29.97S
WILLIAMSBURG*  MOSUNNY   82  70  65 SE6       30.00S
HR EXEC AP*    FAIR      82  64  54 SE6       30.00S
FRANKLIN*      CLOUDY    79  67  66 E5        29.99S
WAKEFIELD      MOSUNNY   80  65  59 E3        29.99S
$$

VAZ020-022-025-037-045-031700-
WEST CENTRAL AND SOUTHWEST VIRGINIA

CITY           SKY/WX    TMP DP  RH WIND       PRES   REMARKS
STAUNTON*      CLOUDY    73  65  75 CALM      30.03S
WAYNESBORO*    CLOUDY    68  64  85 SE6       30.02S
HOT SPRINGS VA RAIN      61  61 100 E7        30.07S VSB<1/4
LYNCHBURG      CLOUDY    71  64  78 E5        30.02R
DANVILLE       PTSUNNY   79  70  74 E6        29.97F
SOUTH BOSTON*  CLOUDY    76  65  69 MISG      29.99R
MARTINSVILLE   CLOUDY    75  73  95 SE5       30.00S
ROANOKE        CLOUDY    68  66  93 E5        30.02S FOG
BLACKSBURG     CLOUDY    67  67 100 SE7       30.05R FOG
DUBLIN*        RAIN      69  69 100 E3        30.02S
MARION*        CLOUDY    73  66  80 CALM      30.04R
HILLSVILLE*    CLOUDY    67  65  94 SE5       30.03R
RICHLANDS*     CLOUDY    71  67  86 S5        30.00R
WISE*          CLOUDY    70  68  94 S7        30.01S
ABINGDON*      PTSUNNY   77  70  79 SW9       29.98S
$$

MDZ021>025-VAZ099-100-031700-
SOUTHERN MARYLAND AND THE DELMARVA PENINSULA

CITY           SKY/WX    TMP DP  RH WIND       PRES   REMARKS
PATUXENT RIVER MOSUNNY   77  66  68 SE8       29.99S
BAY BRIDGE APT   N/A     77  61  57 S7        30.00R
LEONARDTOWN    PTSUNNY   77  63  61 CALM      30.01S
DOVER          PTSUNNY   77  65  67 VRB5      29.98F
GEORGETOWN     MOSUNNY   78  64  61 NE5       30.00S
EASTON         SUNNY     79  64  61 S3        30.03S
CAMBRIDGE      PTSUNNY   79  61  53 S6        29.99S
SALISBURY      MOSUNNY   77  64  64 VRB6      30.00R
OCEAN CITY     SUNNY     76  65  68 SE9G25    30.01R
WALLOPS ISLAND SUNNY     78  63  59 VRB6      30.01R
ACCOMACK*      SUNNY     77  63  61 E8        30.00S
$$

NCZ012>017-030>032-031700-
NORTH CENTRAL AND EASTERN NORTH CAROLINA

CITY           SKY/WX    TMP DP  RH WIND       PRES   REMARKS
ROANOKE RAPIDS CLOUDY    77  70  78 S6        29.98S
RALEIGH        CLOUDY    76  70  82 S5        29.98F
ELIZABETH CITY CLOUDY    79  68  69 CALM      29.99S
AHOSKIE*       MOSUNNY   77  69  76 CALM      29.98S
EDENTON*         N/A     79  71  74 E6        29.99S
CURRITUCK*     CLOUDY    78  64  61 NE5       30.00S
KILL DEVIL HLS PTSUNNY   80  71  71 NE3       29.98S
MANTEO         CLOUDY    77  71  81 E7        29.99S
CAPE HATTERAS  PTSUNNY   79  70  74 SW9       30.00R
TARBORO*         N/A     81  71  71 CALM      29.98S
GOLDSBORO      CLOUDY    78  71  78 S5        29.97R
WASHINGTON     SUNNY     80  70  72 S6        29.98F
GREENVILLE     PTSUNNY   81  72  74 CALM      30.00S
NEW BERN       MOSUNNY   81  71  71 SE8       29.99F
WILMINGTON     CLOUDY    78  72  81 SW9       30.00S
$$

VAZ048-031700-
ELSEWHERE

CITY           SKY/WX    TMP DP  RH WIND       PRES   REMARKS
HARRISBURG PA  MOSUNNY   77  62  59 CALM      29.99F
BALTIMORE      CLOUDY    77  62  59 SE5       29.99S
ANNAPOLIS      MOSUNNY   75  67  76 SE9       29.99S HAZE
ANDREWS AFB    MOSUNNY   76  70  83 SE5       30.00R
PHILADELPHIA   PTSUNNY   80  60  50 E5        30.00F
HENDERSON NC   CLOUDY    76  66  72 SE5       29.99S
GREENSBORO     LGT RAIN  71  68  90 SE7       29.97S FOG
ROCKY MOUNT    PTSUNNY   81  71  71 VRB6      29.97S
$$

VAZ100-031700-
MARINE

STATION/POSITION TIME  TEMP    WIND        PRES    WAVE   SWELL
                       AIR SEA DIR/SP/G            HT/PER HT/PER
                 (UTC) (F)     (DEG/KT/KT) (MB)    (FT/S) (FT/S)
BRANDYWINE LGT   1500   75 73   CALM  /  1 1016.0R
CAPE MAY NJ      1500   74 75  250/  5/  5 1015.4R
LEWES DE         1500   73 72   40/  4/  5 1015.6R
15NM E FENWICK I 1550   73 74              1015.7R   4/ 8
OCEAN-CITY-INLET 1500   73 71   80/  5/  6 1015.5R
WACHAPREAGUE VA  1500   74 78   70/  3/  5 1015.8R
GOOSES REEF MD   1600   75 78  170/  2/  4 1016.8S
COVE POINT MD    1500   73     170/  3/  4 1016.3F
SOLOMONS ISLAND  1500      79                N/A
BISHOPS HEAD MD  1500   74     170/  3/  4 1015.4F
PINEY POINT MD   1500          170/  7/  8   N/A
CAMBRIDGE MD     1500   74 79   40/  4/  4 1015.5F
LEWISETTA VA     1500   75 79  110/  8/ 10 1015.4R
RAPPAHANNOCK LGT 1500           CALM  /  1 1016.1S
STINGRAY PT      1600   75 81  110/  4/  6 1016.0R   1
YORK RVR RNG VA  1500   76     100/  4/  5 1015.0R
YORKTOWN VA      1500   75 79   70/  4/  5 1015.3S
JAMESTOWN VA     1600   77 83  110/  6/ 10   N/A
DOMINION TERM VA 1500   74      80/  6/  8 1015.4R
KIPTOPEKE VA     1500      83   80/  4/  7   N/A
CHES BAY BRIDGE  1500   72 76   40/  6/  7 1015.1R
CAPE HENRY VA    1500   74      40/  5/  6 1013.9R
CHESAPEAKE LGHT  1500   73      40/  6/  6 1016.0S
WILLOUBY STN VA  1500   74      70/  6/  7 1016.4R
CAPE HENRY BUOY  1528      78                N/A     3/ 7
1ST LANDING BUOY 1600      77              1015.4R   1/ 4
CAPE CHARLES BUO 1526      78                N/A     2/ 8   2/ 8
OFFSHORE WE BUOY 1511      78                N/A     4/ 8   3/ 8
64NM E OF VA BCH 1550   75 76   30/  6/  8 1015.0R   4/ 7   3/ 7
DUCK PIER NC     1500   75 72   40/  5/  6 1014.7R
44100 DUCK FRF   1524      77                N/A     3/ 8
44056 DUCK FRF   1511      74                N/A     3/ 4
OREGON INLET NC  1500   76 80   50/  3/  4 1015.3R
HATTERAS NC      1500   78 78  220/  8/ 11 1015.4R
DIAMOND SHLS NC  1550   76 82  260/ 16/ 17 1015.7R   5/ 7   3/ 7
CAPE LOOKOUT NC  1600   79     240/  9/ 12 1015.5F
$$


USA.gov is the U.S. government's official web portal to all federal, state and local government web resources and services.